Weather History for Montague, CA

Change the Weather History Date:

Saturday, December 29, 2012

  Actual Average Record
Temperature  
Mean Temperature 28 °F 35 °F  
Max Temperature 35 °F 44 °F 56 °F (1962)
Min Temperature 21 °F 26 °F 7 °F (1982)
Degree Days  
Heating Degree Days 37 30  
Month to date heating degree days 864 868  
Since 1 July heating degree days 1849 2174  
Cooling Degree Days 0 0  
Month to date cooling degree days 0 0  
Year to date cooling degree days 622 544  
Moisture  
Dew Point 26 °F    
Average Humidity 90    
Maximum Humidity 92    
Minimum Humidity 75    
Precipitation  
Precipitation 0.01 in 0.07 in 0.88 in (1970)
Month to date precipitation 2.50 2.52  
Year to date precipitation 12.44 18.33  
Sea Level Pressure  
Sea Level Pressure 30.15 in    
Wind  
Wind Speed 2 mph (SSE)    
Max Wind Speed 8 mph    
Max Gust Speed 8 mph    
Visibility 8 miles    
Events Snow    
T = Trace of Precipitation, MM = Missing Value Source: NWS Daily Summary

Daily Weather History Graph

Daily Weather History Graph

Search for Another Location

Airport:

Trip Planner

Search our weather history database for the weather conditions in past years. The results will help you decide how hot, cold, wet, or windy it might be!

Date:

Astronomy

Dec. 29, 2012 Rise Set
Actual Time 7:36 AM PST 4:47 PM PST
Civil Twilight 7:05 AM PST 5:19 PM PST
Nautical Twilight 6:30 AM PST 5:54 PM PST
Astronomical Twilight 5:56 AM PST 6:28 PM PST
Moon 6:27 PM PST (12/29) 8:12 AM PST (12/29)
Length of Visible Light 10h 13m
Length of Day
9h 10m
Full, 98% of the Moon is Illuminated
Dec 29
Full
Jan 4
Last Quarter
Jan 11
New
Jan 18
First Quarter
Jan 26
Full

Hourly Weather History & Observations

Time (PST) Temp. Windchill Dew Point Humidity Pressure Visibility Wind Dir Wind Speed Gust Speed Precip Events Conditions
12:05 AM 26.6 °F - 24.8 °F 93% 30.10 in 9.0 mi Calm Calm - 0.00 in   Overcast
12:36 AM 24.8 °F - 23.0 °F 93% 30.10 in 10.0 mi Calm Calm - 0.00 in   Overcast
12:53 AM 24.1 °F - 21.9 °F 91% 30.19 in 10.0 mi Calm Calm - 0.00 in   Overcast
1:26 AM 24.8 °F - 21.2 °F 86% 30.09 in 8.0 mi Calm Calm - N/A   Overcast
1:42 AM 21.2 °F - 19.4 °F 93% 30.09 in 7.0 mi Calm Calm - N/A   Overcast
1:53 AM 21.0 °F - 19.0 °F 92% 30.20 in 10.0 mi Calm Calm - N/A   Overcast
2:06 AM 21.2 °F - 19.4 °F 93% 30.10 in 10.0 mi Calm Calm - N/A   Overcast
2:24 AM 23.0 °F - 19.4 °F 86% 30.11 in 10.0 mi Calm Calm - N/A   Overcast
2:53 AM 24.1 °F - 21.9 °F 91% 30.21 in 10.0 mi Calm Calm - N/A   Overcast
4:14 AM 26.6 °F 20.0 °F 24.8 °F 93% 30.11 in 10.0 mi SSW 5.8 mph - N/A   Overcast
4:53 AM 27.0 °F - 25.0 °F 92% 30.20 in 5.0 mi Calm Calm - 0.00 in Snow Light Snow
5:20 AM 26.6 °F - 24.8 °F 93% 30.10 in 2.5 mi Calm Calm - 0.00 in Snow Light Snow
5:27 AM 26.6 °F - 24.8 °F 93% 30.11 in 3.0 mi Calm Calm - 0.00 in Snow Light Snow
5:53 AM 26.1 °F - 24.1 °F 92% 30.20 in 5.0 mi Calm Calm - 0.00 in Snow Light Snow
6:32 AM 26.6 °F - 24.8 °F 93% 30.11 in 10.0 mi Calm Calm - 0.00 in   Overcast
6:53 AM 27.0 °F - 25.0 °F 92% 30.21 in 10.0 mi Calm Calm - 0.00 in   Overcast
7:53 AM 28.0 °F - 26.1 °F 92% 30.21 in 9.0 mi Calm Calm - N/A   Overcast
8:05 AM 26.6 °F - 26.6 °F 100% 30.11 in 4.0 mi Calm Calm - 0.00 in Snow Light Snow
8:51 AM 28.4 °F - 26.6 °F 93% 30.12 in 2.0 mi Calm Calm - 0.01 in Snow Light Snow
8:53 AM 28.0 °F - 26.1 °F 92% 30.22 in 2.5 mi Calm Calm - 0.01 in Snow Light Snow
9:01 AM 28.4 °F - 26.6 °F 93% 30.13 in 5.0 mi Calm Calm - 0.00 in Snow Light Snow
9:23 AM 28.4 °F - 26.6 °F 93% 30.13 in 2.5 mi Calm Calm - 0.00 in Snow Light Snow
9:33 AM 28.4 °F - 26.6 °F 93% 30.13 in 4.0 mi Calm Calm - 0.00 in Snow Light Snow
9:53 AM 28.9 °F - 26.1 °F 89% 30.23 in 2.0 mi Calm Calm - 0.00 in Snow Light Snow
10:08 AM 30.2 °F - 28.4 °F 93% 30.13 in 4.0 mi Calm Calm - 0.00 in Snow Light Snow
10:53 AM 30.0 °F - 27.0 °F 88% 30.22 in 6.0 mi Calm Calm - 0.00 in   Overcast
11:53 AM 32.0 °F - 28.0 °F 85% 30.20 in 9.0 mi Calm Calm - N/A   Overcast
12:53 PM 33.1 °F 30.0 °F 27.0 °F 78% 30.19 in 10.0 mi East 3.5 mph - 0.00 in   Overcast
1:53 PM 34.0 °F - 28.9 °F 82% 30.17 in 10.0 mi Calm Calm - N/A   Overcast
3:53 PM 35.1 °F 31.0 °F 28.0 °F 76% 30.14 in 10.0 mi SSW 4.6 mph - N/A   Overcast
4:02 PM 33.8 °F 27.7 °F 28.4 °F 81% 30.05 in 10.0 mi South 6.9 mph - N/A   Mostly Cloudy
4:53 PM 32.0 °F 28.7 °F 27.0 °F 82% 30.16 in 10.0 mi WSW 3.5 mph - N/A   Scattered Clouds
5:38 PM 28.4 °F 24.6 °F 24.8 °F 86% 30.08 in 10.0 mi ESE 3.5 mph - N/A   Mostly Cloudy
5:53 PM 30.0 °F 25.2 °F 27.0 °F 88% 30.17 in 10.0 mi SE 4.6 mph - N/A   Overcast
6:24 PM 30.2 °F 24.3 °F 26.6 °F 86% 30.08 in 10.0 mi SSW 5.8 mph - N/A   Scattered Clouds
6:53 PM 28.9 °F - 27.0 °F 92% 30.17 in 10.0 mi Calm Calm - N/A   Partly Cloudy
7:07 PM 26.6 °F - 24.8 °F 93% 30.08 in 10.0 mi Calm Calm - N/A   Mostly Cloudy
7:53 PM 30.9 °F 27.5 °F 28.0 °F 89% 30.18 in 10.0 mi SE 3.5 mph - N/A   Overcast
8:53 PM 30.9 °F 27.5 °F 28.0 °F 89% 30.18 in 10.0 mi West 3.5 mph - N/A   Overcast
9:53 PM 30.9 °F - 28.0 °F 89% 30.18 in 10.0 mi Calm Calm - N/A   Overcast
10:41 PM 30.2 °F 25.4 °F 26.6 °F 86% 30.11 in 10.0 mi SSE 4.6 mph - N/A   Mostly Cloudy
10:49 PM 30.2 °F 25.4 °F 28.4 °F 93% 30.11 in 10.0 mi SSE 4.6 mph - N/A   Mostly Cloudy
10:53 PM 30.9 °F 25.2 °F 28.0 °F 89% 30.19 in 10.0 mi SSE 5.8 mph - N/A   Overcast
11:11 PM 30.2 °F 26.7 °F 28.4 °F 93% 30.11 in 8.0 mi SSE 3.5 mph - 0.00 in Snow Light Snow
11:26 PM 30.2 °F 25.4 °F 28.4 °F 93% 30.11 in 10.0 mi South 4.6 mph - 0.00 in   Overcast
11:53 PM 30.0 °F 25.2 °F 27.0 °F 88% 30.19 in 10.0 mi SSE 4.6 mph - 0.00 in   Overcast